Rothschild, WI

1:01 AM CST on February 14, 2016 (GMT -0600)
Wausau Downtown

Weather History for KAUW - October, 2014

Change the Weather History Date:

Saturday, October 25, 2014

  Actual Average Record
Temperature  
Mean Temperature 51 °F 43 °F  
Max Temperature 61 °F 52 °F 78 °F (1900)
Min Temperature 41 °F 34 °F 15 °F (1933)
Degree Days  
Heating Degree Days 14 22  
Month to date heating degree days 460 448  
Since 1 July heating degree days 738 741  
Cooling Degree Days 0 0  
Month to date cooling degree days 0 0  
Year to date cooling degree days 338 405  
Growing Degree Days 3 (Base 50)    
Moisture  
Dew Point 36 °F    
Average Humidity 59    
Maximum Humidity 93    
Minimum Humidity 25    
Precipitation  
Precipitation 0.00 in 0.08 in 2.34 in (2012)
Month to date precipitation 4.23 2.49  
Year to date precipitation 36.87 28.60  
Snow  
Snow 0.00 in 0.10 in 3.00 in (1905)
Month to date snowfall T 1.0  
Since 1 July snowfall T 1.0  
Snow Depth 0.00 in    
Sea Level Pressure  
Sea Level Pressure 29.89 in    
Wind  
Wind Speed 13 mph (WNW)    
Max Wind Speed 29 mph    
Max Gust Speed 36 mph    
Visibility 9 miles    
Events      
T = Trace of Precipitation, MM = Missing Value Source: NWS Daily Summary

Daily Weather History Graph

Daily Weather History Graph

Search for Another Location

Airport or City:

Trip Planner

Search our weather history database for the weather conditions in past years. The results will help you decide how hot, cold, wet, or windy it might be!

Date:

Astronomy

Oct. 25, 2014 Rise Set
Actual Time 7:27 AM CDT 5:57 PM CDT
Civil Twilight 6:57 AM CDT 6:27 PM CDT
Nautical Twilight 6:22 AM CDT 7:01 PM CDT
Astronomical Twilight 5:48 AM CDT 7:35 PM CDT
Moon 9:09 AM CDT (10/25) 7:16 PM CDT (10/25)
Length of Visible Light 11h 29m
Length of Day
10h 29m
Waxing Crescent, 3% of the Moon is Illuminated
Oct 25
Waxing Crescent
Oct 30
First Quarter
Nov 6
Full
Nov 14
Last Quarter
Nov 22
New

Hourly Weather History & Observations

Time (CDT) Temp. Windchill Dew Point Humidity Pressure Visibility Wind Dir Wind Speed Gust Speed Precip Events Conditions
12:54 AM 55.0 °F - 53.1 °F 93% 29.85 in 6.0 mi West 9.2 mph - N/A   Overcast
1:54 AM 55.9 °F - 53.1 °F 90% 29.84 in 5.0 mi West 6.9 mph - N/A   Overcast
2:54 AM 55.0 °F - 52.0 °F 89% 29.85 in 6.0 mi West 12.7 mph - N/A   Mostly Cloudy
3:06 AM 54.0 °F - 52.0 °F 93% 29.82 in 6.0 mi West 11.5 mph - N/A   Partly Cloudy
3:54 AM 53.1 °F - 51.1 °F 93% 29.84 in 6.0 mi West 10.4 mph - N/A   Clear
4:54 AM 52.0 °F - 48.9 °F 89% 29.85 in 7.0 mi WNW 9.2 mph - N/A   Clear
5:54 AM 50.0 °F - 46.9 °F 89% 29.86 in 8.0 mi WNW 10.4 mph - N/A   Clear
6:54 AM 48.0 °F - 45.0 °F 89% 29.87 in 9.0 mi WNW 9.2 mph - N/A   Clear
7:54 AM 48.0 °F - 42.1 °F 80% 29.88 in 10.0 mi WNW 10.4 mph - N/A   Clear
8:54 AM 50.0 °F - 39.9 °F 68% 29.89 in 10.0 mi WNW 13.8 mph - N/A   Clear
9:54 AM 54.0 °F - 36.0 °F 51% 29.90 in 10.0 mi WNW 18.4 mph 25.3 mph N/A   Clear
10:54 AM 55.9 °F - 32.0 °F 40% 29.90 in 10.0 mi NW 18.4 mph 28.8 mph N/A   Clear
11:54 AM 59.0 °F - 28.9 °F 32% 29.89 in 10.0 mi WNW 17.3 mph 26.5 mph N/A   Clear
12:54 PM 60.1 °F - 26.1 °F 27% 29.89 in 10.0 mi WNW 17.3 mph 28.8 mph N/A   Clear
1:54 PM 61.0 °F - 28.0 °F 29% 29.88 in 10.0 mi WNW 20.7 mph 27.6 mph N/A   Clear
2:54 PM 61.0 °F - 26.1 °F 26% 29.88 in 10.0 mi WNW 21.9 mph 28.8 mph N/A   Clear
3:54 PM 61.0 °F - 25.0 °F 25% 29.89 in 10.0 mi WNW 21.9 mph 31.1 mph N/A   Clear
4:54 PM 60.1 °F - 25.0 °F 26% 29.90 in 10.0 mi WNW 24.2 mph 35.7 mph N/A   Clear
5:54 PM 57.0 °F - 25.0 °F 29% 29.91 in 10.0 mi West 15.0 mph 24.2 mph N/A   Clear
6:54 PM 52.0 °F - 26.1 °F 37% 29.93 in 10.0 mi West 10.4 mph - N/A   Clear
7:54 PM 50.0 °F - 28.0 °F 43% 29.94 in 10.0 mi WNW 10.4 mph - N/A   Clear
8:54 PM 48.9 °F - 28.0 °F 44% 29.95 in 10.0 mi WNW 9.2 mph - N/A   Clear
9:54 PM 48.0 °F - 28.0 °F 46% 29.96 in 10.0 mi WNW 9.2 mph - N/A   Clear
10:54 PM 45.0 °F 41.2 °F 26.1 °F 48% 29.97 in 10.0 mi WNW 6.9 mph - N/A   Clear
11:54 PM 45.0 °F 42.6 °F 26.1 °F 48% 29.99 in 10.0 mi WNW 4.6 mph - N/A   Clear